Regional Weather Roundup
Issued by NWS

Home | Current Version | Previous Version | Graphics & Text | Print | Product List | Glossary On
Versions: 1 2 3 4 5 6 7 8 9 10 11 12 13 14 15 16 17 18 19 20 21 22 23 24 25 26 27 28 29 30 31 32 33 34 35 36 37 38 39 40 41 42 43 44 45 46 47 48 49 50
061
ASUS43 KOAX 110502
RWRNE

WEATHER ROUNDUP FOR NEBRASKA
NATIONAL WEATHER SERVICE OMAHA NE
1100 PM CST SAT DEC 10 2016

NOTES: SATELLITE DATA IS BEING USED TO AUGMENT CLOUD COVER ABOVE
       12000 FEET.
       "FAIR" INDICATES FEW OR NO CLOUDS BELOW 12,000 FEET WITH NO
       SIGNIFICANT WEATHER AND/OR OBSTRUCTIONS TO VISIBILITY.

  * THESE STATIONS DO NOT REPORT WEATHER SUCH AS RAIN...SNOW OR FOG.

NEZ001>004-019>022-054>056-110600-
NEBRASKA PANHANDLE

CITY           SKY/WX    TMP DP  RH WIND       PRES   REMARKS
SCOTTSBLUFF    CLOUDY    27  21  78 N6        29.64R WCI  20
ALLIANCE       CLOUDY    28  24  85 SW9       29.61S WCI  19
CHADRON        CLOUDY     6   2  83 NW6       29.80R FOG     WCI  -4
KIMBALL        CLOUDY    37  32  81 W14       29.67R WCI  29
SIDNEY         CLOUDY    33  27  78 W7        29.65S WCI  27
$$

NEZ057>060-069>072-079>082-110600-
SOUTHWEST NEBRASKA

CITY           SKY/WX    TMP DP  RH WIND       PRES   REMARKS
NORTH PLATTE   CLOUDY    25  21  85 CALM      29.69F
IMPERIAL       CLOUDY    28  24  85 S5        29.67F WCI  23
LEXINGTON      CLOUDY    31  24  77 SE9       29.71F WCI  23
MCCOOK         CLOUDY    26  23  88 NE3       29.71F
OGALLALA       CLOUDY    30  26  85 W3        29.67S
$$

NEZ005>010-023>029-035>040-094-110600-
NORTH CENTRAL NEBRASKA

CITY           SKY/WX    TMP DP  RH WIND       PRES   REMARKS
VALENTINE      CLOUDY    14  12  92 N5        29.67S WCI   6
AINSWORTH      CLOUDY    23  21  92 SE6       29.67S WCI  16
BROKEN BOW     CLOUDY    32  24  72 S12       29.69F WCI  23
O`NEILL        CLOUDY    27  21  78 SE12      29.73F WCI  16
ORD            CLOUDY    29  20  69 SE8       29.73F WCI  21
THEDFORD       CLOUDY    28  24  84 SW8       29.66F WCI  20
$$

NEZ041-046>049-061>064-073>077-083>087-110600-
SOUTH CENTRAL NEBRASKA

CITY           SKY/WX    TMP DP  RH WIND       PRES   REMARKS
GRAND ISLAND   CLOUDY    30  22  72 SE8       29.79F WCI  22
AURORA         CLOUDY    30  21  70 SE6       29.79F WCI  24
HASTINGS       CLOUDY    30  22  72 SE8       29.77F WCI  22
HEBRON         CLOUDY    31  23  71 SE7       29.82F WCI  24
HOLDREGE       CLOUDY    30  24  77 SE3       29.74F
KEARNEY *      CLOUDY    28  19  69 SE5       29.76R WCI  23
YORK           CLOUDY    30  23  74 SE9       29.80F WCI  22
$$

NEZ011>018-030>034-042>045-110600-
NORTHEAST NEBRASKA

CITY           SKY/WX    TMP DP  RH WIND       PRES   REMARKS
NORFOLK        CLOUDY    26  19  74 SE13      29.80F WCI  15
ALBION         CLOUDY    27  20  75 SE8       29.78F WCI  19
BLAIR          CLOUDY    32  23  70 SE13      29.88F WCI  22
FREMONT        CLOUDY    31  22  70 SE13      29.87F WCI  21
TEKAMAH        CLOUDY    28  21  75 SE13      29.91F WCI  17
WAYNE          CLOUDY    26  21  80 SE16      29.84F WCI  14
$$

NEZ050>053-065>068-078-088>093-110600-
SOUTHEAST NEBRASKA

CITY           SKY/WX    TMP DP  RH WIND       PRES   REMARKS
LINCOLN        CLOUDY    33  21  61 SE12      29.86F WCI  24
OMAHA EPPLEY   CLOUDY    31  20  63 SE14      29.91F WCI  21
BEATRICE       PTCLDY    32  23  68 SE10      29.85F WCI  24
FALLS CITY     CLOUDY    33  21  61 SE9       29.92F WCI  25
NEBRASKA CITY  PTCLDY    32  19  59 SE8       29.91F WCI  24
PLATTSMOUTH    CLOUDY    32  20  61 SE10      29.90F WCI  24
$$

NEZ044-045-051>053-067-110600-
OMAHA AREA

CITY           SKY/WX    TMP DP  RH WIND       PRES   REMARKS
OMAHA EPPLEY   CLOUDY    31  20  63 SE14      29.91F WCI  21
BLAIR          CLOUDY    32  23  70 SE13      29.88F WCI  22
FREMONT        CLOUDY    31  22  70 SE13      29.87F WCI  21
MILLARD        CLOUDY    33  24  68 SE10G16   29.90F WCI  25
OFFUTT AFB     CLOUDY    31  22  68 SE15      29.90F WCI  21
PLATTSMOUTH    CLOUDY    32  20  61 SE10      29.90F WCI  24
WAHOO          FAIR      31  21  66 SE13      29.87F WCI  21
$$




USA.gov is the U.S. government's official web portal to all federal, state and local government web resources and services.